7 * 24
多渠道服务支持
JILIN-01 GAOFEN 3D 30(吉林一号高分3D 30)是中国发射的商业遥感卫星,于2022年5月5日发射入轨。作为吉林一号卫星星座的组成部分,它延续了吉林一号高分辨率对地观测能力,具备立体成像能力,可为国土资源监测、土地测绘、智慧城市建设、农业估产、防灾减灾等领域提供精准三维遥感数据,推动我国商业遥感应用发展,服务国民经济各领域对空间信息的需求。
中国
(CN)
| 数据来源 | 国际轨道数据 |
| 星历时间: | 2026-03-13T22:54:24+0800 10小时前 查看轨道信息 |
| 半长轴: | 6747.305km |
| 偏心率: | 0.0003635 |
| 轨道倾角: | 97.560° |
| 近地点辐角 | 17.490° |
| 升交点赤经 | 181.582° |
| 平近点角 | 342.648° |
| 近地点: | 366.715km |
| 远地点: | 371.621km |
| 周期: | 91.930分钟 |
| 每日圈数: | 15.664168 |